TimeEDT,TemperatureF,Dew PointF,Humidity,Sea Level PressureIn,VisibilityMPH,Wind Direction,Wind SpeedMPH,Gust SpeedMPH,PrecipitationIn,Events,Conditions,WindDirDegrees,DateUTC
12:15 AM,69.8,69.1,98,30.21,7.0,Calm,Calm,-,N/A,,Scattered Clouds,0,2013-08-19 04:15:00
12:35 AM,69.8,69.1,98,30.22,10.0,Calm,Calm,-,N/A,Rain,Light Rain,0,2013-08-19 04:35:00
12:55 AM,69.8,69.1,98,30.22,7.0,Calm,Calm,-,0.01,Rain,Rain,0,2013-08-19 04:55:00
1:15 AM,69.8,69.1,98,30.21,7.0,WNW,3.5,-,0.01,Rain,Light Rain,290,2013-08-19 05:15:00
1:35 AM,69.8,69.1,98,30.21,7.0,Calm,Calm,-,0.03,Rain,Light Rain,0,2013-08-19 05:35:00
1:55 AM,69.3,68.5,98,30.20,7.0,WNW,3.5,-,0.06,Rain,Light Rain,290,2013-08-19 05:55:00
2:15 AM,69.1,68.4,98,30.20,7.0,Calm,Calm,-,0.01,Rain,Light Rain,0,2013-08-19 06:15:00
2:35 AM,69.1,68.2,97,30.19,7.0,Calm,Calm,-,0.03,Rain,Light Rain,0,2013-08-19 06:35:00
2:55 AM,69.1,68.2,97,30.20,7.0,Calm,Calm,-,0.06,Rain,Rain,0,2013-08-19 06:55:00
3:15 AM,68.9,68.2,98,30.19,5.0,Calm,Calm,-,0.01,Rain,Light Rain,0,2013-08-19 07:15:00
3:35 AM,68.9,68.2,98,30.19,5.0,Calm,Calm,-,0.03,Rain,Light Rain,0,2013-08-19 07:35:00
3:55 AM,68.9,68.4,98,30.18,5.0,Calm,Calm,-,0.06,Rain,Light Rain,0,2013-08-19 07:55:00
4:15 AM,68.9,68.4,98,30.18,3.0,Calm,Calm,-,N/A,Rain,Light Rain,0,2013-08-19 08:15:00
4:35 AM,68.9,68.2,98,30.17,1.0,Calm,Calm,-,0.01,Rain,Rain,0,2013-08-19 08:35:00
4:55 AM,68.5,68.4,99,30.18,2.5,Calm,Calm,-,0.03,Rain,Light Rain,0,2013-08-19 08:55:00
5:15 AM,68.2,68.0,99,30.17,5.0,Calm,Calm,-,N/A,Rain,Rain,0,2013-08-19 09:15:00
5:35 AM,68.2,68.0,99,30.17,7.0,North,3.5,-,0.01,Rain,Light Rain,10,2013-08-19 09:35:00
5:55 AM,68.0,68.0,100,30.17,7.0,NNE,4.6,-,0.03,Rain,Light Rain,20,2013-08-19 09:55:00
6:15 AM,68.0,68.0,100,30.16,7.0,North,4.6,-,N/A,Rain,Light Rain,360,2013-08-19 10:15:00
6:35 AM,68.0,68.0,100,30.16,7.0,North,4.6,-,0.01,Rain,Light Rain,10,2013-08-19 10:35:00
6:55 AM,68.0,68.0,100,30.16,7.0,North,4.6,-,0.01,,Overcast,10,2013-08-19 10:55:00
7:15 AM,68.0,67.6,99,30.17,7.0,Calm,Calm,-,N/A,,Overcast,0,2013-08-19 11:15:00
7:35 AM,68.0,67.6,99,30.16,7.0,North,4.6,-,N/A,,Overcast,10,2013-08-19 11:35:00
7:55 AM,68.0,67.5,98,30.17,7.0,North,5.8,-,N/A,,Overcast,350,2013-08-19 11:55:00
8:15 AM,68.0,67.5,98,30.17,10.0,North,5.8,-,N/A,,Light Drizzle,360,2013-08-19 12:15:00
8:35 AM,68.0,67.1,97,30.16,7.0,NNE,5.8,-,0.02,Rain,Light Rain,20,2013-08-19 12:35:00
8:55 AM,68.0,67.1,97,30.15,10.0,Calm,Calm,-,0.02,,Overcast,0,2013-08-19 12:55:00
9:15 AM,68.0,67.1,97,30.18,3.0,SSW,3.5,-,0.10,Rain,Heavy Rain,210,2013-08-19 13:15:00
9:35 AM,68.2,66.7,95,30.17,7.0,Calm,Calm,-,0.22,Rain,Light Rain,0,2013-08-19 13:35:00
9:55 AM,68.0,66.7,96,30.16,3.0,Calm,Calm,-,0.31,Rain,Rain,0,2013-08-19 13:55:00
10:15 AM,68.0,65.8,93,30.20,7.0,SW,5.8,-,0.02,Rain,Light Rain,230,2013-08-19 14:15:00
10:35 AM,67.5,65.7,94,30.20,7.0,SW,4.6,-,0.06,Rain,Rain,230,2013-08-19 14:35:00
10:55 AM,67.1,65.7,95,30.21,3.0,SW,3.5,-,0.17,Rain,Rain,220,2013-08-19 14:55:00
11:15 AM,67.1,65.8,96,30.21,4.0,Calm,Calm,-,0.06,Rain,Rain,0,2013-08-19 15:15:00
11:35 AM,67.1,66.2,97,30.20,4.0,SE,3.5,-,0.15,Rain,Rain,140,2013-08-19 15:35:00
11:55 AM,67.1,66.2,97,30.20,3.0,Calm,Calm,-,0.27,Rain,Rain,0,2013-08-19 15:55:00
12:15 PM,67.3,65.7,95,30.20,10.0,Calm,Calm,-,N/A,,Overcast,0,2013-08-19 16:15:00
12:35 PM,68.9,65.7,89,30.20,10.0,Calm,Calm,-,N/A,Rain,Light Rain,0,2013-08-19 16:35:00
12:55 PM,68.9,66.2,91,30.20,10.0,Calm,Calm,-,0.02,Rain,Light Rain,0,2013-08-19 16:55:00
1:15 PM,70.0,67.1,91,30.19,10.0,Calm,Calm,-,N/A,,Overcast,0,2013-08-19 17:15:00
1:35 PM,70.2,66.2,87,30.19,10.0,Calm,Calm,-,N/A,,Overcast,0,2013-08-19 17:35:00
1:55 PM,70.9,66.4,86,30.19,10.0,Calm,Calm,-,N/A,,Overcast,0,2013-08-19 17:55:00
2:15 PM,72.5,66.2,81,30.18,10.0,Calm,Calm,-,N/A,,Overcast,0,2013-08-19 18:15:00
2:35 PM,72.5,66.6,82,30.18,10.0,Calm,Calm,-,N/A,,Overcast,0,2013-08-19 18:35:00
2:55 PM,72.5,66.4,81,30.17,10.0,Calm,Calm,-,N/A,,Overcast,0,2013-08-19 18:55:00
3:15 PM,74.3,65.8,75,30.16,10.0,Calm,Calm,-,N/A,,Overcast,0,2013-08-19 19:15:00
3:35 PM,75.9,67.1,74,30.15,10.0,Calm,Calm,-,N/A,,Overcast,0,2013-08-19 19:35:00
3:55 PM,75.7,66.4,73,30.14,10.0,Calm,Calm,-,N/A,,Mostly Cloudy,0,2013-08-19 19:55:00
4:15 PM,76.3,65.7,70,30.14,10.0,NE,3.5,-,N/A,,Scattered Clouds,40,2013-08-19 20:15:00
4:35 PM,76.8,64.9,67,30.13,10.0,North,3.5,-,N/A,,Scattered Clouds,10,2013-08-19 20:35:00
4:55 PM,76.8,65.8,69,30.13,10.0,East,3.5,-,N/A,,Mostly Cloudy,100,2013-08-19 20:55:00
5:15 PM,76.1,64.2,67,30.13,10.0,Calm,Calm,-,N/A,,Mostly Cloudy,0,2013-08-19 21:15:00
5:35 PM,76.5,65.7,69,30.12,10.0,ENE,3.5,-,N/A,,Mostly Cloudy,70,2013-08-19 21:35:00
5:55 PM,76.8,65.8,69,30.12,10.0,Calm,Calm,-,N/A,,Scattered Clouds,0,2013-08-19 21:55:00
6:15 PM,76.6,66.2,70,30.12,10.0,Calm,Calm,-,N/A,,Clear,0,2013-08-19 22:15:00
6:35 PM,76.1,66.2,71,30.12,10.0,Calm,Calm,-,N/A,,Clear,0,2013-08-19 22:35:00
6:55 PM,76.5,66.0,70,30.12,10.0,Calm,Calm,-,N/A,,Scattered Clouds,0,2013-08-19 22:55:00
7:15 PM,76.1,66.0,71,30.12,10.0,Calm,Calm,-,N/A,,Mostly Cloudy,0,2013-08-19 23:15:00
7:35 PM,75.2,67.5,77,30.13,10.0,Calm,Calm,-,N/A,,Overcast,0,2013-08-19 23:35:00
7:55 PM,74.3,67.3,79,30.13,10.0,Calm,Calm,-,N/A,,Scattered Clouds,0,2013-08-19 23:55:00
8:15 PM,73.0,67.6,83,30.13,10.0,Calm,Calm,-,N/A,,Clear,0,2013-08-20 00:15:00
8:35 PM,71.1,68.0,90,30.13,10.0,Calm,Calm,-,N/A,,Scattered Clouds,0,2013-08-20 00:35:00
8:55 PM,71.2,68.4,91,30.14,10.0,Calm,Calm,-,N/A,,Mostly Cloudy,0,2013-08-20 00:55:00
9:15 PM,72.0,68.4,88,30.14,10.0,Calm,Calm,-,N/A,,Overcast,0,2013-08-20 01:15:00
9:35 PM,71.2,67.8,89,30.15,10.0,Calm,Calm,-,N/A,,Scattered Clouds,0,2013-08-20 01:35:00
9:55 PM,69.8,68.0,94,30.16,7.0,Calm,Calm,-,N/A,,Clear,0,2013-08-20 01:55:00
10:15 PM,69.1,67.5,95,30.15,10.0,Calm,Calm,-,N/A,,Clear,0,2013-08-20 02:15:00
10:35 PM,69.3,67.1,93,30.15,10.0,Calm,Calm,-,N/A,,Clear,0,2013-08-20 02:35:00
10:55 PM,69.1,67.1,93,30.15,10.0,Calm,Calm,-,N/A,,Scattered Clouds,0,2013-08-20 02:55:00
11:15 PM,68.9,67.1,94,30.16,10.0,Calm,Calm,-,N/A,,Clear,0,2013-08-20 03:15:00
11:35 PM,68.9,67.5,95,30.16,10.0,Calm,Calm,-,N/A,,Scattered Clouds,0,2013-08-20 03:35:00
11:55 PM,68.9,67.6,96,30.16,10.0,Calm,Calm,-,N/A,,Scattered Clouds,0,2013-08-20 03:55:00